Simultaneous Nadir Overpasses (SNOs) Predictions

Prediction of SNOs between LANDSAT-8 and NOAA-19 Satellite Orbit:

Table of predicted SNOs for the next 14.0 days since TLE Epoch: 11/23/2024
Index Date (LANDSAT-8) Time (LANDSAT-8) Lat,Lon (LANDSAT-8) SZA (LANDSAT-8 ) Date (NOAA-19) Time (NOAA-19) Lat,Lon (NOAA-19) SZA (NOAA-19 ) Distance(km) Time Diff (sec)
1 11/25/2024 01:08:57 80.21,-167.83 102.44 11/25/2024 01:08:11 80.21,-167.82 102.42 0.46 46
2 11/25/2024 01:58:22 -80.28, 0.44 77.44 11/25/2024 01:59:02 -80.27, 0.32 77.45 2.53 40
3 11/27/2024 08:21:35 -80.24, -95.77 77.11 11/27/2024 08:21:32 -80.23, -95.80 77.12 0.74 3
4 11/29/2024 14:44:48 -80.17, 167.81 76.86 11/29/2024 14:44:03 -80.16, 167.68 76.89 2.46 45
5 11/29/2024 15:34:11 80.26, -23.68 103.31 11/29/2024 15:35:02 80.27, -23.62 103.34 1.19 51
6 12/01/2024 21:57:22 80.23,-119.73 103.59 12/01/2024 21:57:31 80.24,-119.61 103.61 2.27 9
7 12/04/2024 04:20:33 80.15, 143.71 103.75 12/04/2024 04:20:01 80.15, 143.66 103.74 1.07 32
8 12/04/2024 05:09:57 -80.26, -47.68 76.08 12/04/2024 05:10:50 -80.26, -47.55 76.04 2.45 53
9 12/06/2024 10:43:43 80.11, 47.55 103.94 12/06/2024 10:42:30 80.10, 47.46 103.90 1.67 73



Historial Predications of SNOs between LANDSAT-8 and NOAA-19
